Notices

What's New in latest Release from April 7th, 2021:

- Updated Glossary, including Speed of Maximum Gust, and Total Hourly Precipitation

- Updated national and regional climate services offices contacts and prices information

- Addition of station inventory lists for 1981-2010, 1971-2000, and 1961-1990 Normals.

If you haven't already, please take our survey and provide feedback about our website: https://eccc.sondage-survey.ca/f/LanguageSelection.aspx?s=442ca660-fcf1-47c0-95a9-59707d6fd709

Hourly Data Report for December 09, 2019

CARBERRY CS
MANITOBA
Current Station Operator: ECCC - MSC

49°54'20.900" N
99°21'26.800" W
383.50 m
5010547
71170
WZE

Download Data

Hourly Data (December 2019)
Hourly Data Report for December 9, 2019
TIME
LST
Temp Definition
°C
Dew Point Definition
°C
Rel Hum Definition
%
Precip. Amount Definition
mm

Wind Dir Definition
10's deg

Wind Spd Definition
km/h
Visibility Definition
km
Stn Press Definition
kPa
Hmdx Definition


Wind Chill Definition


Weather Definition


00:00 -24.4 -27.5 76 0.0 34 3   97.27   -27 LegendNANA
01:00 -26.3 -29.1 77 0.0 26 4   97.20   -30 LegendNANA
02:00 -26.1 -28.7 79 0.0 24 5   97.15   -31 LegendNANA
03:00 -26.2 -28.9 78 0.0 23 6   97.11   -32 LegendNANA
04:00 -25.0 -28.0 77 0.0 22 7   97.02   -31 LegendNANA
05:00 -25.3 -28.0 78 0.0 23 6   96.95   -31 LegendNANA
06:00 -25.2 -27.9 78 0.0 25 12   96.88   -34 LegendNANA
07:00 -25.4 -28.4 76 0.0 26 9   96.81   -33 LegendNANA
08:00 -24.4 -27.4 76 0.0 25 8   96.71   -31 LegendNANA
09:00 -23.3 -26.5 75 0.2 23 8   96.67   -30 LegendNANA
10:00 -21.7 -24.7 76 0.0 21 6   96.63   -27 LegendNANA
11:00 -19.9 -22.9 76 0.0 19 9   96.54   -27 LegendNANA
12:00 -17.5 -21.0 74 0.0 22 11   96.50   -25 LegendNANA
13:00 -16.4 -20.2 72 0.0 28 17   96.53   -25 LegendNANA
14:00 -15.4 -20.2 67 0.0 24 6   96.46   -20 LegendNANA
15:00 -15.0 -18.8 73 0.0 26 13   96.48   -22 LegendNANA
16:00 -15.2 -17.7 81 0.0 30 11   96.57   -22 LegendNANA
17:00 -16.5 -19.8 76 0.0 1 28   96.71   -28 LegendNANA
18:00 -18.0 -21.3 75 0.2 36 28   96.88   -30 LegendNANA
19:00 -19.8 -23.6 72 0.0 34 28   97.02   -32 LegendNANA
20:00 -21.4 -25.0 73 0.0 35 26   97.17   -34 LegendNANA
21:00 -22.4 -26.3 70 0.0 36 28   97.24   -35 LegendNANA
22:00 -23.5 -27.2 71 0.0 36 17   97.34   -34 LegendNANA
23:00 -24.8 -28.4 72 0.0 35 10   97.43   -33 LegendNANA

Notes on Data Quality.

Legend

  • E = Estimated
  • M = Missing
  • NA = Not Available*
  • [empty] = Indicates an unobserved value
Date modified: